Location: Pine Mountain Observatory
(43.7910°N, 120.9377°W)
Time: 01:55:26
(UTC-07:00)

A-11 Canister half - All Passes

Search period start: 24 May 2019 00:00
Search period end: 03 June 2019 00:00
Orbit: 1517 x 1683 km, 47.2° (Epoch: 23 May)

Date Brightness Start Highest point End Pass type
(mag) Time Alt. Az. Time Alt. Az. Time Alt. Az.
24 May - 01:55:13 10° WNW 02:04:03 52° SW 02:13:06 10° SE visible
24 May - 04:02:43 10° W 04:07:18 15° SW 04:11:57 10° SSW visible
24 May - 17:15:50 10° S 17:22:33 22° SE 17:29:10 10° E daylight
24 May - 19:16:55 10° SW 19:26:09 65° SSE 19:35:15 10° ENE daylight
24 May - 21:21:45 10° W 21:31:04 75° N 21:40:22 10° ENE visible
24 May - 23:27:14 10° WNW 23:36:32 81° NNE 23:45:56 10° ESE visible
25 May - 01:32:17 10° WNW 01:41:12 54° SW 01:50:17 10° SE visible
25 May - 03:39:23 10° W 03:44:30 16° SW 03:49:42 10° SSW visible
25 May - 16:53:20 10° S 16:59:45 21° SE 17:06:04 10° E daylight
25 May - 18:54:04 10° SW 19:03:16 63° SSE 19:12:20 10° ENE daylight
25 May - 20:58:48 10° W 21:08:08 76° N 21:17:26 10° ENE visible
25 May - 23:04:18 10° WNW 23:13:36 79° NNE 23:22:59 10° E visible
26 May - 01:09:22 10° WNW 01:18:20 57° SW 01:27:28 10° SE visible
26 May - 03:16:09 10° W 03:21:42 18° SW 03:27:22 10° SSW visible
26 May - 16:30:54 10° SSE 16:36:57 19° SE 16:42:55 10° E daylight
26 May - 18:31:14 10° SW 18:40:24 60° SE 18:49:25 10° ENE daylight
26 May - 20:35:51 10° W 20:45:12 78° NNW 20:54:30 10° ENE daylight
26 May - 22:41:22 10° WNW 22:50:41 78° NNE 23:00:02 10° E visible
27 May - 00:46:27 10° WNW 00:55:28 60° SW 01:04:38 10° SE visible
27 May - 02:52:58 10° W 02:58:55 19° SW 03:04:57 10° SSW visible
27 May - 16:08:29 10° SSE 16:14:09 18° SE 16:19:45 10° E daylight
27 May - 18:08:24 10° SW 18:17:33 57° SE 18:26:31 10° ENE daylight
27 May - 20:12:54 10° W 20:22:16 79° NNW 20:31:34 10° ENE daylight
27 May - 22:18:27 10° WNW 22:27:45 77° N 22:37:05 10° E visible
28 May - 00:23:33 10° WNW 00:32:36 62° SW 00:41:48 10° SE visible
28 May - 02:29:50 10° W 02:36:07 21° SW 02:42:30 10° S visible
28 May - 15:46:08 10° SSE 15:51:22 16° SE 15:56:30 10° E daylight
28 May - 17:45:35 10° SW 17:54:41 54° SE 18:03:35 10° ENE daylight
28 May - 19:49:56 10° WSW 19:59:21 80° NNW 20:08:39 10° ENE daylight
28 May - 21:55:30 10° WNW 22:04:49 75° N 22:14:07 10° E visible
29 May - 00:00:38 10° WNW 00:09:44 65° SSW 00:18:56 10° SE visible
29 May - 02:06:43 10° W 02:13:19 22° SW 02:20:00 10° S visible
29 May - 15:23:53 10° SSE 15:28:34 15° SE 15:33:12 10° E daylight
29 May - 17:22:46 10° SW 17:31:49 52° SE 17:40:40 10° ENE daylight
29 May - 19:27:00 10° WSW 19:36:26 82° NNW 19:45:44 10° ENE daylight
29 May - 21:32:34 10° WNW 21:41:52 75° N 21:51:10 10° E visible
29 May - 23:37:43 10° WNW 23:46:51 68° SSW 23:56:06 10° SE visible
30 May - 01:43:38 10° W 01:50:30 24° SW 01:57:29 10° S visible
30 May - 15:01:44 10° SSE 15:05:47 13° ESE 15:09:47 10° E daylight
30 May - 16:59:58 10° SSW 17:08:58 49° SE 17:17:45 10° ENE daylight
30 May - 19:04:03 10° WSW 19:13:30 84° NNW 19:22:49 10° ENE daylight
30 May - 21:09:37 10° WNW 21:18:57 74° N 21:28:14 10° E visible
30 May - 23:14:48 10° WNW 23:23:59 71° SSW 23:33:14 10° SE visible
31 May - 01:20:35 10° W 01:27:42 26° SW 01:34:55 10° S visible
31 May - 14:39:46 10° SE 14:43:00 12° ESE 14:46:12 10° ESE daylight
31 May - 16:37:10 10° SSW 16:46:06 47° SE 16:54:49 10° ENE daylight
31 May - 18:41:07 10° WSW 18:50:35 86° NNW 18:59:54 10° ENE daylight
31 May - 20:46:40 10° W 20:56:00 73° N 21:05:17 10° E daylight
31 May - 22:51:53 10° WNW 23:01:06 74° SSW 23:10:21 10° SE visible
01 Jun - 00:57:33 10° WNW 01:04:53 27° SW 01:12:20 10° S visible
01 Jun - 14:18:10 10° SE 14:20:13 11° ESE 14:22:14 10° ESE daylight
01 Jun - 16:14:24 10° SSW 16:23:15 44° SE 16:31:53 10° ENE daylight
01 Jun - 18:18:09 10° WSW 18:27:40 88° NNW 18:36:59 10° ENE daylight
01 Jun - 20:23:43 10° W 20:33:04 73° N 20:42:20 10° E daylight
01 Jun - 22:28:57 10° WNW 22:38:13 76° SSW 22:47:29 10° SE visible
02 Jun - 00:34:32 10° WNW 00:42:05 29° SW 00:49:43 10° S visible
02 Jun - 15:51:39 10° SSW 16:00:24 42° SE 16:08:56 10° ENE daylight
02 Jun - 17:55:13 10° WSW 18:04:45 90° N 18:14:04 10° ENE daylight
02 Jun - 20:00:46 10° W 20:10:08 72° N 20:19:24 10° E daylight
02 Jun - 22:06:03 10° WNW 22:15:20 79° SSW 22:24:36 10° ESE visible
